This is the latest recevied weather packets stored in our database for station/object DL7HMX-13. If no packets are shown the sender has not sent any weather packets the latest 10 day(s).
| Time | Temp. | Humidity | Pressure | Rain* | Wind** | Luminosity | Snow |
|---|---|---|---|---|---|---|---|
| 1777625421 | 15.56° C | 37% | 1028.9 hPa | 0 mm | - | 563 W/m² | - |
| 1777624825 | 15° C | 37% | 1029.1 hPa | 0 mm | - | 546 W/m² | - |
| 1777624227 | 15° C | 38% | 1029 hPa | 0 mm | - | 528 W/m² | - |
| 1777623631 | 15° C | 38% | 1029 hPa | 0 mm | - | 510 W/m² | - |
| 1777623016 | 15.56° C | 37% | 1028.9 hPa | 0 mm | - | 484 W/m² | - |
| 1777622419 | 15° C | 37% | 1029 hPa | 0 mm | - | 466 W/m² | - |
| 1777621823 | 14.44° C | 38% | 1028.9 hPa | 0 mm | - | 419 W/m² | - |
| 1777621224 | 13.89° C | 39% | 1028.9 hPa | 0 mm | - | 424 W/m² | - |
| 1777620627 | 13.33° C | 43% | 1028.8 hPa | 0 mm | - | 393 W/m² | - |
| 1777620030 | 12.78° C | 51% | 1028.8 hPa | 0 mm | - | 374 W/m² | - |
| 1777618820 | 11.11° C | 58% | 1028.9 hPa | 0 mm | - | 320 W/m² | - |
| 1777618223 | 8.89° C | 65% | 1028.9 hPa | 0 mm | - | 295 W/m² | - |
| 1777617625 | 8.89° C | 68% | 1028.9 hPa | 0 mm | - | 267 W/m² | - |
| 1777617028 | 7.78° C | 71% | 1029 hPa | 0 mm | - | 242 W/m² | - |
| 1777616432 | 7.78° C | 71% | 1029 hPa | 0 mm | - | 213 W/m² | - |
| 1777615818 | 7.22° C | 72% | 1029 hPa | 0 mm | - | 187 W/m² | - |
| 1777615221 | 5.56° C | 77% | 1028.9 hPa | 0 mm | - | 163 W/m² | - |
| 1777614624 | 5.56° C | 77% | 1028.7 hPa | 0 mm | - | 137 W/m² | - |
| 1777614027 | 5.56° C | 77% | 1028.8 hPa | 0 mm | - | 116 W/m² | - |
| 1777613431 | 5° C | 77% | 1028.8 hPa | 0 mm | - | 97 W/m² | - |
| 1777612816 | 3.89° C | 82% | 1028.8 hPa | 0 mm | - | 78 W/m² | - |
| 1777612218 | 2.22° C | 86% | 1028.7 hPa | 0 mm | - | 62 W/m² | - |
| 1777611622 | 2.22° C | 87% | 1028.7 hPa | 0 mm | - | 48 W/m² | - |
| 1777611024 | 2.22° C | 87% | 1028.8 hPa | 0 mm | - | 36 W/m² | - |
| 1777610427 | 1.11° C | 87% | 1028.7 hPa | 0 mm | - | 28 W/m² | - |
* Rain latest hour (hover to see other rain measurements)
** Current wind speed in m/s (hover to see current wind gust speed)